Meadville, PA

5:01 PM EDT on June 26, 2017 (GMT -0400)
Port Meadville

Weather History for KGKJ - February, 2013

Change the Weather History Date:

Friday, February 1, 2013

  Actual Average Record
Temperature  
Mean Temperature 14 °F -  
Max Temperature 17 °F 33 °F 58 °F (1988)
Min Temperature 10 °F 16 °F -8 °F (1971)
Degree Days  
Heating Degree Days 52    
Moisture  
Dew Point 9 °F    
Average Humidity 78    
Maximum Humidity 88    
Minimum Humidity 61    
Precipitation  
Precipitation 0.00 in - - ()
Sea Level Pressure  
Sea Level Pressure 29.99 in    
Wind  
Wind Speed 11 mph (WSW)    
Max Wind Speed 22 mph    
Max Gust Speed 30 mph    
Visibility 2 miles    
Events Fog , Snow    
Averages and records for this station are not official NWS values.
T = Trace of Precipitation, MM = Missing Value Source: NWS Daily Summary

Daily Weather History Graph

Daily Weather History Graph

Search for Another Location

Airport or City:

Trip Planner

Search our weather history database for the weather conditions in past years. The results will help you decide how hot, cold, wet, or windy it might be!

Date:

Astronomy

Feb. 01, 2013 Rise Set
Actual Time 7:32 AM EST 5:36 PM EST
Civil Twilight 7:03 AM EST 6:06 PM EST
Nautical Twilight 6:29 AM EST 6:39 PM EST
Astronomical Twilight 5:57 AM EST 7:12 PM EST
Moon 11:48 PM EST (2/1) 9:59 AM EST (2/1)
Length of Visible Light 11h 03m
Length of Day
10h 04m
Waning Gibbous, 70% of the Moon is Illuminated
Feb 1
Waning Gibbous
Feb 3
Last Quarter
Feb 10
New
Feb 17
First Quarter
Feb 25
Full

Hourly Weather History & Observations

Time (EST) Temp. Windchill Dew Point Humidity Pressure Visibility Wind Dir Wind Speed Gust Speed Precip Events Conditions
12:06 AM 17.6 °F 5.7 °F 10.4 °F 73% 29.76 in 5.0 mi WSW 10.4 mph - 0.00 in Snow Light Snow
12:44 AM 17.6 °F 6.4 °F 10.4 °F 73% 29.76 in 2.5 mi West 9.2 mph 20.7 mph 0.00 in Snow Light Snow
12:53 AM 17.1 °F 7.6 °F 10.0 °F 74% 29.81 in 1.5 mi WSW 6.9 mph - 0.00 in Snow Light Snow
1:01 AM 15.8 °F 5.1 °F 10.4 °F 79% 29.75 in 0.5 mi West 8.1 mph - 0.00 in Snow Snow
1:21 AM 15.8 °F 4.2 °F 10.4 °F 79% 29.76 in 1.2 mi WSW 9.2 mph - 0.00 in Snow Light Snow
1:36 AM 15.8 °F 2.7 °F 10.4 °F 79% 29.76 in 1.2 mi WSW 11.5 mph - 0.00 in Snow Light Snow
2:14 AM 15.8 °F 6.1 °F 10.4 °F 79% 29.77 in 2.5 mi SW 6.9 mph - 0.00 in Snow Light Snow
2:25 AM 15.8 °F 3.4 °F 10.4 °F 79% 29.77 in 1.5 mi SW 10.4 mph 16.1 mph 0.00 in Snow Light Snow
2:45 AM 15.8 °F 2.7 °F 10.4 °F 79% 29.77 in 0.8 mi SW 11.5 mph - 0.00 in Snow Light Snow
2:53 AM 16.0 °F 5.3 °F 10.9 °F 81% 29.84 in 0.5 mi WSW 8.1 mph - 0.00 in Snow Snow
2:58 AM 15.8 °F 4.2 °F 12.2 °F 86% 29.78 in 0.2 mi WSW 9.2 mph - 0.00 in Fog , Snow Snow
3:19 AM 15.8 °F 4.2 °F 12.2 °F 86% 29.79 in 0.5 mi WSW 9.2 mph - 0.00 in Fog , Snow Snow
3:42 AM 15.8 °F 3.4 °F 12.2 °F 86% 29.79 in 0.2 mi West 10.4 mph - 0.00 in Fog , Snow Heavy Snow
3:53 AM 15.1 °F 2.5 °F 12.0 °F 88% 29.86 in 0.2 mi West 10.4 mph - 0.00 in Fog , Snow Heavy Snow
3:56 AM 15.8 °F 3.4 °F 12.2 °F 86% 29.80 in 0.5 mi WSW 10.4 mph - 0.00 in Fog , Snow Light Snow
4:06 AM 15.8 °F 1.4 °F 12.2 °F 86% 29.80 in 1.0 mi WSW 13.8 mph - 0.00 in Snow Light Snow
4:13 AM 15.8 °F 3.4 °F 12.2 °F 86% 29.80 in 0.5 mi WSW 10.4 mph - 0.00 in Fog , Snow Snow
4:21 AM 15.8 °F 3.4 °F 12.2 °F 86% 29.81 in 0.2 mi West 10.4 mph - 0.00 in Fog , Snow Heavy Snow
4:32 AM 15.8 °F 3.4 °F 12.2 °F 86% 29.81 in 1.0 mi West 10.4 mph - 0.00 in Snow Light Snow
4:48 AM 15.8 °F 5.1 °F 12.2 °F 86% 29.82 in 0.5 mi West 8.1 mph - 0.00 in Fog , Snow Snow
4:53 AM 16.0 °F 2.9 °F 12.0 °F 84% 29.89 in 0.8 mi West 11.5 mph - 0.00 in Snow Light Snow
5:14 AM 15.8 °F 1.4 °F 10.4 °F 79% 29.84 in 0.2 mi West 13.8 mph 21.9 mph 0.00 in Fog , Snow Heavy Snow
5:27 AM 15.8 °F 2.7 °F 10.4 °F 79% 29.85 in 0.8 mi West 11.5 mph - 0.00 in Snow Light Snow
5:49 AM 15.8 °F 2.1 °F 10.4 °F 79% 29.86 in 0.8 mi West 12.7 mph - 0.00 in Snow Light Snow
5:53 AM 15.1 °F 2.5 °F 10.9 °F 84% 29.93 in 0.8 mi West 10.4 mph - 0.00 in Snow Light Snow
6:09 AM 15.8 °F 0.9 °F 10.4 °F 79% 29.87 in 1.0 mi West 15.0 mph 25.3 mph 0.00 in Snow Light Snow
6:27 AM 15.8 °F 4.2 °F 10.4 °F 79% 29.88 in 2.0 mi West 9.2 mph - 0.00 in Snow Light Snow
6:35 AM 15.8 °F 3.4 °F 10.4 °F 79% 29.89 in 1.0 mi West 10.4 mph - 0.00 in Snow Light Snow
6:42 AM 15.8 °F 2.7 °F 10.4 °F 79% 29.89 in 0.5 mi West 11.5 mph 20.7 mph 0.00 in Fog , Snow Snow
6:53 AM 15.1 °F 2.5 °F 10.9 °F 84% 29.97 in 0.5 mi West 10.4 mph - 0.00 in Fog , Snow Snow
7:02 AM 15.8 °F 0.3 °F 10.4 °F 79% 29.91 in 0.2 mi West 16.1 mph 20.7 mph 0.00 in Fog , Snow Snow
7:53 AM 15.1 °F 0.5 °F 10.9 °F 84% 30.01 in 0.2 mi West 13.8 mph - 0.00 in Fog , Snow Light Snow
8:02 AM 15.8 °F 3.4 °F 10.4 °F 79% 29.95 in 0.5 mi West 10.4 mph - 0.00 in Fog , Snow Light Snow
8:19 AM 15.8 °F 5.1 °F 10.4 °F 79% 29.96 in 0.5 mi West 8.1 mph - 0.00 in Fog , Snow Light Snow
8:22 AM 15.8 °F 3.4 °F 12.2 °F 86% 29.96 in 0.2 mi West 10.4 mph - 0.00 in Fog , Snow Light Snow
8:29 AM 15.8 °F 1.4 °F 10.4 °F 79% 29.96 in 0.2 mi West 13.8 mph 21.9 mph 0.00 in Fog , Snow Light Snow
8:53 AM 15.1 °F 2.5 °F 10.9 °F 84% 30.05 in 0.5 mi West 10.4 mph 18.4 mph 0.00 in Fog , Snow Light Snow
9:01 AM 15.8 °F 0.9 °F 10.4 °F 79% 29.99 in 0.2 mi West 15.0 mph 21.9 mph 0.00 in Snow Heavy Snow
9:03 AM 15.8 °F 2.1 °F 10.4 °F 79% 29.99 in 0.5 mi West 12.7 mph 21.9 mph 0.00 in Snow Snow
9:18 AM 15.8 °F 3.4 °F 10.4 °F 79% 30.00 in 0.2 mi WSW 10.4 mph - 0.00 in Fog , Snow Light Snow
9:32 AM 14.0 °F -2.0 °F 10.4 °F 86% 30.00 in 0.2 mi WSW 16.1 mph - 0.00 in Fog , Snow Heavy Snow
9:53 AM 12.9 °F -2.2 °F 9.0 °F 84% 30.09 in 0.2 mi WSW 13.8 mph 24.2 mph 0.00 in Fog , Snow Snow
10:53 AM 12.9 °F -4.4 °F 8.1 °F 81% 30.12 in 0.2 mi WSW 18.4 mph 25.3 mph 0.00 in Snow Heavy Snow
11:12 AM 14.0 °F 0.5 °F 8.6 °F 79% 30.05 in 0.5 mi WSW 11.5 mph 20.7 mph 0.00 in Snow Snow
11:31 AM 14.0 °F -0.2 °F 8.6 °F 79% 30.06 in 0.2 mi WSW 12.7 mph 23.0 mph 0.00 in Snow Heavy Snow
11:40 AM 14.0 °F -2.0 °F 8.6 °F 79% 30.06 in 0.2 mi West 16.1 mph 23.0 mph 0.00 in Snow Heavy Snow
11:53 AM 15.1 °F -0.1 °F 9.0 °F 77% 30.14 in 0.2 mi WSW 15.0 mph 23.0 mph 0.00 in Snow Heavy Snow
12:14 PM 15.8 °F 0.3 °F 10.4 °F 79% 30.07 in 0.5 mi WSW 16.1 mph 21.9 mph 0.00 in Snow Snow
12:21 PM 14.0 °F -4.3 °F 8.6 °F 79% 30.07 in 0.2 mi West 21.9 mph 27.6 mph 0.00 in Snow Heavy Snow
12:35 PM 14.0 °F -2.5 °F 8.6 °F 79% 30.08 in 0.5 mi WSW 17.3 mph - 0.00 in Snow Snow
12:53 PM 15.1 °F -2.5 °F 9.0 °F 77% 30.15 in 0.8 mi WSW 20.7 mph 27.6 mph 0.00 in Snow Light Snow
1:23 PM 15.8 °F 0.3 °F 8.6 °F 73% 30.08 in 1.0 mi West 16.1 mph 28.8 mph 0.00 in Snow Light Snow
1:34 PM 15.8 °F -0.2 °F 8.6 °F 73% 30.08 in 1.0 mi West 17.3 mph 27.6 mph 0.00 in Snow Light Snow
1:45 PM 15.8 °F 0.3 °F 8.6 °F 73% 30.08 in 0.8 mi West 16.1 mph 25.3 mph 0.00 in Snow Light Snow
1:53 PM 16.0 °F 0.6 °F 9.0 °F 74% 30.16 in 0.5 mi West 16.1 mph 25.3 mph 0.00 in Snow Snow
2:01 PM 15.8 °F -0.6 °F 8.6 °F 73% 30.08 in 0.2 mi West 18.4 mph 28.8 mph 0.00 in Snow Heavy Snow
2:10 PM 15.8 °F -1.1 °F 8.6 °F 73% 30.09 in 0.2 mi West 19.6 mph 27.6 mph 0.00 in Snow Heavy Snow
2:18 PM 15.8 °F 1.4 °F 8.6 °F 73% 30.09 in 0.5 mi WSW 13.8 mph 26.5 mph 0.00 in Snow Snow
2:35 PM 15.8 °F -0.6 °F 10.4 °F 79% 30.10 in 0.5 mi WSW 18.4 mph 26.5 mph 0.00 in Snow Snow
2:53 PM 15.1 °F -1.6 °F 9.0 °F 77% 30.18 in 1.2 mi West 18.4 mph 25.3 mph 0.00 in Snow Light Snow
2:57 PM 15.8 °F 1.4 °F 8.6 °F 73% 30.11 in 3.0 mi WSW 13.8 mph 25.3 mph 0.00 in Snow Light Snow
3:11 PM 15.8 °F -1.5 °F 8.6 °F 73% 30.12 in 7.0 mi WSW 20.7 mph 29.9 mph 0.00 in Snow Light Snow
3:53 PM 15.1 °F 0.5 °F 3.9 °F 61% 30.21 in 9.0 mi WSW 13.8 mph 23.0 mph 0.00 in   Overcast
4:53 PM 14.0 °F 1.2 °F 3.0 °F 62% 30.23 in 10.0 mi SW 10.4 mph 20.7 mph N/A   Overcast
5:53 PM 12.9 °F 1.6 °F 1.9 °F 62% 30.25 in 10.0 mi SW 8.1 mph 17.3 mph N/A   Overcast
6:53 PM 12.0 °F -0.4 °F 1.9 °F 64% 30.26 in 10.0 mi SW 9.2 mph - N/A   Mostly Cloudy
7:53 PM 10.9 °F -1.8 °F 1.9 °F 67% 30.27 in 10.0 mi SW 9.2 mph - N/A   Clear
8:53 PM 10.9 °F -0.8 °F 3.0 °F 70% 30.28 in 10.0 mi SW 8.1 mph - N/A   Overcast
9:53 PM 12.0 °F 0.5 °F 3.0 °F 67% 30.29 in 10.0 mi WSW 8.1 mph - N/A   Overcast
10:15 PM 12.2 °F 2.9 °F 3.2 °F 67% 30.21 in 9.0 mi SW 5.8 mph - 0.00 in   Overcast
10:53 PM 10.9 °F 0.2 °F 6.1 °F 81% 30.29 in 4.0 mi SW 6.9 mph - 0.00 in Snow Light Snow
11:23 PM 12.2 °F -0.2 °F 6.8 °F 79% 30.20 in 4.0 mi SW 9.2 mph - 0.00 in Snow Light Snow
11:53 PM 12.0 °F 0.5 °F 3.9 °F 70% 30.28 in 10.0 mi SSW 8.1 mph - 0.00 in   Overcast